Terminal Aerodrome Forecast
Issued by NWS St Louis, MO

Home | Current Version | Previous Version | Text Only | Print | Product List | Glossary On
Versions: 1 2 3 4 5 6 7 8 9 10 11 12 13 14 15 16 17 18 19 20 21 22 23 24 25 26 27
246
FTUS43 KLSX 261130
TAFCOU
TAF
KCOU 261130Z 2612/2712 26007KT 4SM BR OVC003
     FM261500 26008KT P6SM OVC007
     FM261800 25008KT P6SM BKN020
     FM262000 25009KT P6SM BKN040
     FM270600 VRB03KT 5SM -SHRA OVC030=

USA.gov is the U.S. government's official web portal to all federal, state and local government web resources and services.